Regional Weather Roundup
Issued by NWS

Home | Current Version | Previous Version | Graphics & Text | Print | Product List | Glossary On
Versions: 1 2 3 4 5 6 7 8 9 10 11 12 13 14 15 16 17 18 19 20 21 22 23 24 25 26 27 28 29 30 31 32 33 34 35 36 37 38 39 40 41 42 43 44 45 46 47 48 49 50
000
ASUS45 KPSR 280800
RWRAZ

ARIZONA REGIONAL HOURLY WEATHER ROUNDUP
NATIONAL WEATHER SERVICE PHOENIX AZ
100 AM MST TUE APR 28 2015

NOTE: FAIR INDICATES FEW OR NO CLOUDS BELOW 12,000 FEET WITH NO
SIGNIFICANT WEATHER AND/OR OBSTRUCTIONS TO VISIBILITY.

AZZ001>003-036-280900-
NORTHWEST ARIZONA

CITY           SKY/WX    TMP DP  RH WIND       PRES   REMARKS
KINGMAN        CLEAR     53  27  36 E7        30.07S
$$

AZZ004>008-015-016-018-280900-
NORTH CENTRAL ARIZONA

CITY           SKY/WX    TMP DP  RH WIND       PRES   REMARKS
GRAND CANYON   CLEAR     35  29  78 NE7       30.23S WCI  29
WILLIAMS       CLEAR     37  32  81 S12       30.27F WCI  30
PRESCOTT       CLEAR     47  36  65 S3        30.13R
FLAGSTAFF      NOT AVBL
PAYSON         CLEAR     54  34  47 CALM      30.14R
$$

AZZ009>014-017-280900-
NORTHEAST ARIZONA

CITY           SKY/WX    TMP DP  RH WIND       PRES   REMARKS
WINSLOW        NOT AVBL
SAINT JOHNS    CLEAR     48  36  63 SE5       30.15S
WINDOW ROCK    PTCLDY    48  36  63 NE12      30.22S
SHOW LOW       MOCLDY    41  34  75 S6        30.19S
$$

AZZ023-280900-
GREATER PHOENIX AREA

CITY           SKY/WX    TMP DP  RH WIND       PRES   REMARKS
PHOENIX        CLEAR     72  46  39 E3        29.91R
DEER VALLEY    CLEAR     68  44  42 NE5       29.93R
SCOTTSDALE     CLEAR     68  47  46 N3        29.95R
$$

AZZ027-028-280900-
SOUTHWEST MARICOPA COUNTY AND PINAL COUNTY

CITY           SKY/WX    TMP DP  RH WIND       PRES   REMARKS
CASA GRANDE    CLEAR     66  36  32 CALM      29.93R
$$

AZZ503-504-507>509-280900-
SOUTHEAST ARIZONA

CITY           SKY/WX    TMP DP  RH WIND       PRES   REMARKS
TUCSON         CLEAR     64  39  39 E6        30.02R
NOGALES        CLEAR     58  33  39 VRB5      30.05R
SIERRA VISTA   CLEAR     57  33  40 S17       30.11S
SAFFORD        CLEAR     61  38  42 S10       30.10R
$$

AZZ020-021-025-026-031-280900-
SOUTHWEST ARIZONA

CITY           SKY/WX    TMP DP  RH WIND       PRES   REMARKS
YUMA           CLEAR     69  34  27 CALM      29.90S
$$

CAZ031-033-041-043-047-048-061-280900-
SOUTHERN CALIFORNIA

CITY           SKY/WX    TMP DP  RH WIND       PRES   REMARKS
DOWNTOWN L.A.  CLEAR     64  46  52 CALM      29.96R
L.A. AIRPORT   CLEAR     62  49  62 CALM      29.97R
SAN DIEGO      CLEAR     67  43  41 NE3       29.97F
BURBANK        CLEAR     63  36  36 CALM      29.97S
ONTARIO        CLEAR     61  38  42 N6        30.00R
RIVERSIDE      CLEAR     61  36  39 CALM      30.00R
PALM SPRINGS   CLEAR     74  25  16 NW9       29.96S
EL CENTRO NAS  CLEAR     64  24  21 SW10      29.91F
IMPERIAL       CLEAR     63  30  28 W10       29.89S
BLYTHE         CLEAR     71  24  17 SW7       29.91S
$$

NVZ020-UTZ003-280900-
SOUTHERN NEVADA-UTAH

CITY           SKY/WX    TMP DP  RH WIND       PRES   REMARKS
LAS VEGAS      NOT AVBL
SALT LAKE CITY CLEAR     48  39  71 SE7       30.24R
$$

NMZ009-TXZ055-280900-
NEW MEXICO-WEST TEXAS

CITY           SKY/WX    TMP DP  RH WIND       PRES   REMARKS
ALBUQUERQUE    PTCLDY    46  33  60 SE9       30.25S
EL PASO        MOCLDY    50  34  54 NW6       30.19F
$$


........................KEY........................
SKY/WX - SKY CONDITION/WEATHER
TMP    - TEMPERATURE IN FAHRENHEIT
DP     - DEW POINT IN FAHRENHEIT
RH     - RELATIVE HUMIDITY IN PERCENT
WIND   - DIRECTION AND SPEED IN MILES PER HOUR (MPH)
VRB    - VARIABLE WIND DIRECTION
PRES   - MEAN SEA LEVEL PRESSURE IN INCHES OF MERCURY
         F - FALLING PRESSURE   R - RISING PRESSURE
         S - STEADY PRESSURE
VSB    - VISIBILITY IN MILES
HX     - HEAT INDEX IN FAHRENHEIT
WCI    - WIND CHILL INDEX IN FAHRENHEIT
TC     - TEMPERATURE IN CELSIUS WHICH IS ALSO KNOWN AS
         TEMPERATURE IN CENTIGRADE
AFB    - AIR FORCE BASE
         LUKE AFB IS LUKE AIR FORCE BASE
         DAVIS-MONTHAN IS DAVIS-MONTHAN AIR FORCE BASE
NAS    - NAVAL AIR STATION
         EL CENTRO NAS IS EL CENTRO NAVAL AIR STATION
N/A    - NOT AVAILABLE



USA.gov is the U.S. government's official web portal to all federal, state and local government web resources and services.